リニア彗星

230P/LINEAR (2015)

English version
Home page
Updated on February 8, 2021

---------------------------------------------------------------------

・ プロフィール

・ 写真集

・ 軌道要素

Epoch 2015 Dec. 4.0 TT = JDT 2457360.5
T 2015 Nov. 18.07455 TT                                 MPCW
q   1.4852792            (2000.0)            P               Q
n   0.15726235     Peri.  308.92022     +0.45659578     -0.85838051
a   3.3992743      Node   112.39488     +0.87432430     +0.38431093
e   0.5630599      Incl.   14.65308     +0.16455188     +0.33983526
P   6.27
From 1250 observations 1997 Jan. 10-2018 May 21, mean residual 0".4.

・ 星図

・ 光度変化

        m1 = 13.0 + 5 logΔ + 15.0 log r(t - 35)  [   ,190]  (              〜2016年 5月26日)
        H = 15.0  G = 0.15                        [190,   ]  (2016年 5月26日〜              )

---------------------------------------------------------------------

軌道要素はM.P.E.C. 2018-K95に掲載されたものです。
星図はステラナビゲータ Ver.8 (アストロアーツ) で作成したものです。
光度グラフはComet for Windowsで作成したものです。

---------------------------------------------------------------------

Copyright(C) Seiichi Yoshida (comet@aerith.net). All rights reserved.